Home > Weather > Mariehamn > Past weeks

Flag for Åland Islands Past Weather in Mariehamn, Åland Islands — Yesterday and Last 2 Weeks

Now
63 °F

Passing clouds.


Feels Like: 63 °F
Forecast: 63 / 71 °F
Wind: 7 mph from Southwest

Location: Mariehamn / Aland Island

Current Time: Jul 1, 2016 at 3:50:22 AM

Latest Report: Jul 1, 2016 at 3:20 AM


Visibility: N/A

Pressure: 29.86 "Hg

Humidity: 94%

Dew Point: 61 °F

Location of MariehamnLocation

Past Weather in Mariehamn — Graph

°F

Mariehamn Temperature Yesterday

Maximum temperature yesterday: 66 °F (at 11:50 AM)
Minimum temperature yesterday: 59 °F (at 12:50 AM)
Average temperature yesterday: 63 °F

High & Low Weather Summary for the Past Weeks

 TemperatureHumidityPressure
High73 °F (Jun 26, 11:20 AM)100% (Jun 16, 12:20 PM)30.18 "Hg (Jun 16, 12:20 PM)
Low50 °F (Jun 28, 4:50 AM)49% (Jun 29, 3:20 PM)29.21 "Hg (Jun 18, 6:20 AM)
Average60 °F86%29.85 "Hg
* Reported Jun 16 2:20 AM — Jul 1 2:50 AM, Mariehamn, Weather by CustomWeather, © 2016

Note: Actual official high and low records may vary slightly from our data, if they occured in-between our weather recording intervals... More about our weather records

Advertising

Mariehamn Weather History for the Previous 24 Hours

Scroll right to see more
 ConditionsComfort  
Time TempWeatherWind HumidityBarometerVisibility
2:50 AM
Fri, Jul 1
63 °FClear.9 mph88%29.86 "Hg10 mi
2:20 AM61 °FPassing clouds.9 mph94%29.86 "HgN/A
1:50 AM61 °FPassing clouds.9 mph94%29.86 "HgN/A
1:20 AM61 °FPassing clouds.9 mph100%29.86 "HgN/A
12:50 AM61 °FPassing clouds.9 mph100%29.86 "HgN/A
12:20 AM63 °FPartly cloudy.9 mph94%29.86 "HgN/A
11:50 PM
Thu, Jun 30
63 °FSunny.10 mph94%29.86 "Hg10 mi
11:20 PM63 °FPassing clouds.10 mph88%29.86 "HgN/A
10:50 PM63 °FPassing clouds.10 mph94%29.86 "HgN/A
10:20 PM63 °FSunny.10 mph88%29.86 "Hg10 mi
9:50 PM63 °FPartly sunny.10 mph94%29.86 "HgN/A
9:20 PM63 °FBroken clouds.12 mph94%29.83 "HgN/A
8:50 PM63 °FPartly sunny.14 mph94%29.83 "HgN/A
8:20 PM64 °FPassing clouds.12 mph88%29.83 "HgN/A
7:50 PM64 °FPassing clouds.10 mph88%29.83 "HgN/A
7:20 PM64 °FPassing clouds.12 mph83%29.83 "HgN/A
6:50 PM64 °FSunny.13 mph83%29.83 "Hg10 mi
6:20 PM64 °FSunny.14 mph83%29.83 "Hg10 mi
5:50 PM64 °FPartly sunny.12 mph83%29.83 "HgN/A
5:20 PM64 °FPartly sunny.12 mph88%29.83 "HgN/A
4:50 PM66 °FBroken clouds.9 mph78%29.83 "HgN/A
4:20 PM64 °FPassing clouds.9 mph88%29.83 "HgN/A
3:50 PM66 °FPassing clouds.10 mph73%29.83 "HgN/A
3:20 PM66 °FPassing clouds.9 mph78%29.83 "HgN/A
2:50 PM66 °FPassing clouds.9 mph78%29.83 "HgN/A
2:20 PM66 °FPassing clouds.9 mph78%29.83 "HgN/A
1:50 PM66 °FScattered clouds.9 mph73%29.83 "HgN/A
1:20 PM66 °FPassing clouds.9 mph73%29.83 "HgN/A
12:50 PM66 °FPassing clouds.7 mph68%29.83 "HgN/A
12:20 PM66 °FPassing clouds.7 mph68%29.83 "HgN/A
11:50 AM66 °FScattered clouds.7 mph78%29.83 "HgN/A
11:20 AM64 °FScattered clouds.6 mph83%29.83 "HgN/A
10:50 AM64 °FScattered clouds.7 mph83%29.83 "HgN/A
10:20 AM64 °FPassing clouds.6 mph83%29.83 "HgN/A
9:50 AM64 °FScattered clouds.5 mph83%29.80 "HgN/A
9:20 AM63 °FScattered clouds.6 mph88%29.83 "HgN/A
8:50 AM63 °FScattered clouds.5 mph88%29.80 "HgN/A
8:20 AM63 °FScattered clouds.5 mph88%29.83 "HgN/A
7:20 AM61 °FPartly sunny.2 mph94%29.83 "HgN/A
6:50 AM61 °FPartly sunny.1 mph94%29.80 "HgN/A
6:20 AM59 °FPartly sunny.1 mph94%29.83 "Hg5 mi
5:50 AM59 °FFog.2 mph100%29.83 "Hg4 mi
5:20 AM59 °FSunny.1 mph94%29.83 "Hg10 mi
4:50 AM59 °FPassing clouds.3 mph100%29.83 "HgN/A
4:20 AM59 °FPassing clouds.2 mph94%29.83 "HgN/A
3:50 AM59 °FSprinkles. Low clouds.3 mph94%29.83 "HgN/A
3:20 AM59 °FSprinkles. Overcast.1 mph94%29.83 "HgN/A
Weather by CustomWeather, © 2016

See weather overviewHow to use our weather pages